Year,Month,Day,Hour,Minute,Value (Times are PST for temperature in C)
2011,06,26,00,00,10.80
2011,06,26,00,01,10.80
2011,06,26,00,02,10.80
2011,06,26,00,03,10.80
2011,06,26,00,04,10.80
2011,06,26,00,05,10.70
2011,06,26,00,06,10.70
2011,06,26,00,07,10.70
2011,06,26,00,08,10.70
2011,06,26,00,09,10.70
2011,06,26,00,10,10.70
2011,06,26,00,11,10.70
2011,06,26,00,12,10.70
2011,06,26,00,13,10.70
2011,06,26,00,14,10.70
2011,06,26,00,15,10.70
2011,06,26,00,16,10.70
2011,06,26,00,17,10.60
2011,06,26,00,18,10.60
2011,06,26,00,19,10.60
2011,06,26,00,20,10.60
2011,06,26,00,21,10.60
2011,06,26,00,22,10.60
2011,06,26,00,23,10.60
2011,06,26,00,24,10.60
2011,06,26,00,25,10.50
2011,06,26,00,26,10.40
2011,06,26,00,27,10.40
2011,06,26,00,28,10.40
2011,06,26,00,29,10.40
2011,06,26,00,30,10.40
2011,06,26,00,31,10.40
2011,06,26,00,32,10.40
2011,06,26,00,33,10.40
2011,06,26,00,34,10.40
2011,06,26,00,35,10.30
2011,06,26,00,36,10.30
2011,06,26,00,37,10.30
2011,06,26,00,38,10.30
2011,06,26,00,39,10.30
2011,06,26,00,40,10.30
2011,06,26,00,41,10.20
2011,06,26,00,42,10.20
2011,06,26,00,43,10.20
2011,06,26,00,44,10.20
2011,06,26,00,45,10.10
2011,06,26,00,46,10.10
2011,06,26,00,47,10.10
2011,06,26,00,48,10.10
2011,06,26,00,49,10.10
2011,06,26,00,50,10.10
2011,06,26,00,51,10.10
2011,06,26,00,52,10.10
2011,06,26,00,53,10.00
2011,06,26,00,54,9.90
2011,06,26,00,55,9.90
2011,06,26,00,56,9.90
2011,06,26,00,57,9.90
2011,06,26,00,58,9.90
2011,06,26,00,59,9.90
2011,06,26,01,00,9.90
2011,06,26,01,01,9.90
2011,06,26,01,02,9.90
2011,06,26,01,03,9.90
2011,06,26,01,04,9.90
2011,06,26,01,05,9.90
2011,06,26,01,06,9.90
2011,06,26,01,07,9.90
2011,06,26,01,08,9.90
2011,06,26,01,09,10.10
2011,06,26,01,10,10.10
2011,06,26,01,11,10.10
2011,06,26,01,12,10.10
2011,06,26,01,13,10.10
2011,06,26,01,14,10.00
2011,06,26,01,15,9.90
2011,06,26,01,16,9.90
2011,06,26,01,17,9.90
2011,06,26,01,18,9.90
2011,06,26,01,19,9.90
2011,06,26,01,20,9.90
2011,06,26,01,21,9.90
2011,06,26,01,22,9.90
2011,06,26,01,23,9.80
2011,06,26,01,24,9.80
2011,06,26,01,25,9.80
2011,06,26,01,26,9.80
2011,06,26,01,27,9.70
2011,06,26,01,28,9.70
2011,06,26,01,29,9.70
2011,06,26,01,30,9.70
2011,06,26,01,31,9.70
2011,06,26,01,32,9.70
2011,06,26,01,33,9.70
2011,06,26,01,34,9.70
2011,06,26,01,35,9.70
2011,06,26,01,36,9.70
2011,06,26,01,37,9.60
2011,06,26,01,38,9.60
2011,06,26,01,39,9.60
2011,06,26,01,40,9.60
2011,06,26,01,41,9.60
2011,06,26,01,42,9.60
2011,06,26,01,43,9.70
2011,06,26,01,44,9.70
2011,06,26,01,45,9.70
2011,06,26,01,46,9.70
2011,06,26,01,47,9.70
2011,06,26,01,48,9.60
2011,06,26,01,49,9.60
2011,06,26,01,50,9.60
2011,06,26,01,51,9.60
2011,06,26,01,52,9.60
2011,06,26,01,53,9.60
2011,06,26,01,54,9.50
2011,06,26,01,55,9.50
2011,06,26,01,56,9.50
2011,06,26,01,57,9.40
2011,06,26,01,58,9.40
2011,06,26,01,59,9.40
2011,06,26,02,00,9.30
2011,06,26,02,01,9.30
2011,06,26,02,02,9.30
2011,06,26,02,03,9.20
2011,06,26,02,04,9.20
2011,06,26,02,05,9.20
2011,06,26,02,06,9.20
2011,06,26,02,07,9.20
2011,06,26,02,08,9.20
2011,06,26,02,09,9.20
2011,06,26,02,10,9.20
2011,06,26,02,11,9.10
2011,06,26,02,12,9.10
2011,06,26,02,13,9.20
2011,06,26,02,14,9.20
2011,06,26,02,15,9.20
2011,06,26,02,16,9.20
2011,06,26,02,17,9.20
2011,06,26,02,18,9.10
2011,06,26,02,19,9.10
2011,06,26,02,20,9.10
2011,06,26,02,21,9.10
2011,06,26,02,22,9.10
2011,06,26,02,23,9.10
2011,06,26,02,24,9.00
2011,06,26,02,25,9.00
2011,06,26,02,26,9.00
2011,06,26,02,27,9.00
2011,06,26,02,28,9.00
2011,06,26,02,29,9.00
2011,06,26,02,30,9.00
2011,06,26,02,31,8.90
2011,06,26,02,32,8.90
2011,06,26,02,33,8.90
2011,06,26,02,34,8.90
2011,06,26,02,35,8.90
2011,06,26,02,36,8.90
2011,06,26,02,37,8.90
2011,06,26,02,38,8.90
2011,06,26,02,39,8.90
2011,06,26,02,40,8.90
2011,06,26,02,41,8.90
2011,06,26,02,42,8.90
2011,06,26,02,43,8.90
2011,06,26,02,44,8.90
2011,06,26,02,45,8.90
2011,06,26,02,46,8.90
2011,06,26,02,47,8.90
2011,06,26,02,48,8.80
2011,06,26,02,49,8.80
2011,06,26,02,50,8.80
2011,06,26,02,51,8.70
2011,06,26,02,52,8.70
2011,06,26,02,53,8.70
2011,06,26,02,54,8.70
2011,06,26,02,55,8.70
2011,06,26,02,56,8.70
2011,06,26,02,57,8.70
2011,06,26,02,58,8.70
2011,06,26,02,59,8.70
2011,06,26,03,00,8.70
2011,06,26,03,01,8.70
2011,06,26,03,02,8.70
2011,06,26,03,03,8.70
2011,06,26,03,04,8.70
2011,06,26,03,05,8.70
2011,06,26,03,06,8.70
2011,06,26,03,07,8.70
2011,06,26,03,08,8.70
2011,06,26,03,09,8.70
2011,06,26,03,10,8.70
2011,06,26,03,11,8.70
2011,06,26,03,12,8.70
2011,06,26,03,13,8.70
2011,06,26,03,14,8.60
2011,06,26,03,15,8.60
2011,06,26,03,16,8.50
2011,06,26,03,17,8.50
2011,06,26,03,18,8.50
2011,06,26,03,19,8.40
2011,06,26,03,20,8.40
2011,06,26,03,21,8.40
2011,06,26,03,22,8.40
2011,06,26,03,23,8.30
2011,06,26,03,24,8.30
2011,06,26,03,25,8.30
2011,06,26,03,26,8.30
2011,06,26,03,27,8.30
2011,06,26,03,28,8.30
2011,06,26,03,29,8.30
2011,06,26,03,30,8.20
2011,06,26,03,31,8.20
2011,06,26,03,32,8.20
2011,06,26,03,33,8.20
2011,06,26,03,34,8.20
2011,06,26,03,35,8.20
2011,06,26,03,36,8.20
2011,06,26,03,37,8.20
2011,06,26,03,38,8.20
2011,06,26,03,39,8.20
2011,06,26,03,40,8.20
2011,06,26,03,41,8.20
2011,06,26,03,42,8.20
2011,06,26,03,43,8.20
2011,06,26,03,44,8.20
2011,06,26,03,45,8.20
2011,06,26,03,46,8.20
2011,06,26,03,47,8.20
2011,06,26,03,48,8.20
2011,06,26,03,49,8.20
2011,06,26,03,50,8.20
2011,06,26,03,51,8.20
2011,06,26,03,52,8.20
2011,06,26,03,53,8.10
2011,06,26,03,54,8.10
2011,06,26,03,55,8.10
2011,06,26,03,56,8.10
2011,06,26,03,57,8.10
2011,06,26,03,58,8.10
2011,06,26,03,59,8.10
2011,06,26,04,00,8.00
2011,06,26,04,01,8.00
2011,06,26,04,02,8.00
2011,06,26,04,03,8.00
2011,06,26,04,04,8.00
2011,06,26,04,05,7.90
2011,06,26,04,06,7.90
2011,06,26,04,07,7.90
2011,06,26,04,08,7.90
2011,06,26,04,09,7.90
2011,06,26,04,10,7.90
2011,06,26,04,11,7.90
2011,06,26,04,12,7.80
2011,06,26,04,13,7.80
2011,06,26,04,14,7.80
2011,06,26,04,15,7.80
2011,06,26,04,16,7.80
2011,06,26,04,17,7.80
2011,06,26,04,18,7.80
2011,06,26,04,19,7.80
2011,06,26,04,20,7.80
2011,06,26,04,21,7.80
2011,06,26,04,22,7.80
2011,06,26,04,23,7.80
2011,06,26,04,24,7.80
2011,06,26,04,25,7.80
2011,06,26,04,26,7.80
2011,06,26,04,27,7.80
2011,06,26,04,28,7.80
2011,06,26,04,29,7.80
2011,06,26,04,30,7.80
2011,06,26,04,31,7.80
2011,06,26,04,32,7.70
2011,06,26,04,33,7.70
2011,06,26,04,34,7.70
2011,06,26,04,35,7.70
2011,06,26,04,36,7.70
2011,06,26,04,37,7.70
2011,06,26,04,38,7.70
2011,06,26,04,39,7.60
2011,06,26,04,40,7.60
2011,06,26,04,41,7.60
2011,06,26,04,42,7.60
2011,06,26,04,43,7.60
2011,06,26,04,44,7.60
2011,06,26,04,45,7.60
2011,06,26,04,46,7.60
2011,06,26,04,47,7.60
2011,06,26,04,48,7.60
2011,06,26,04,49,7.60
2011,06,26,04,50,7.60
2011,06,26,04,51,7.50
2011,06,26,04,52,7.50
2011,06,26,04,53,7.50
2011,06,26,04,54,7.50
2011,06,26,04,55,7.50
2011,06,26,04,56,7.50
2011,06,26,04,57,7.50
2011,06,26,04,58,7.50
2011,06,26,04,59,7.40
2011,06,26,05,00,7.40
2011,06,26,05,01,7.40
2011,06,26,05,02,7.40
2011,06,26,05,03,7.40
2011,06,26,05,04,7.40
2011,06,26,05,05,7.40
2011,06,26,05,06,7.40
2011,06,26,05,07,7.30
2011,06,26,05,08,7.30
2011,06,26,05,09,7.30
2011,06,26,05,10,7.30
2011,06,26,05,11,7.30
2011,06,26,05,12,7.30
2011,06,26,05,13,7.30
2011,06,26,05,14,7.30
2011,06,26,05,15,7.30
2011,06,26,05,16,7.30
2011,06,26,05,17,7.30
2011,06,26,05,18,7.30
2011,06,26,05,19,7.30
2011,06,26,05,20,7.30
2011,06,26,05,21,7.30
2011,06,26,05,22,7.30
2011,06,26,05,23,7.30
2011,06,26,05,24,7.30
2011,06,26,05,25,7.30
2011,06,26,05,26,7.20
2011,06,26,05,27,7.20
2011,06,26,05,28,7.20
2011,06,26,05,29,7.20
2011,06,26,05,30,7.20
2011,06,26,05,31,7.20
2011,06,26,05,32,7.20
2011,06,26,05,33,7.20
2011,06,26,05,34,7.20
2011,06,26,05,35,7.20
2011,06,26,05,36,7.20
2011,06,26,05,37,7.20
2011,06,26,05,38,7.20
2011,06,26,05,39,7.20
2011,06,26,05,40,7.20
2011,06,26,05,41,7.20
2011,06,26,05,42,7.30
2011,06,26,05,43,7.30
2011,06,26,05,44,7.30
2011,06,26,05,45,7.30
2011,06,26,05,46,7.30
2011,06,26,05,47,7.30
2011,06,26,05,48,7.40
2011,06,26,05,49,7.40
2011,06,26,05,50,7.50
2011,06,26,05,51,7.50
2011,06,26,05,52,7.60
2011,06,26,05,53,7.60
2011,06,26,05,54,7.60
2011,06,26,05,55,7.60
2011,06,26,05,56,7.70
2011,06,26,05,57,7.70
2011,06,26,05,58,7.70
2011,06,26,05,59,7.70
2011,06,26,06,00,7.70
2011,06,26,06,01,7.80
2011,06,26,06,02,7.80
2011,06,26,06,03,7.80
2011,06,26,06,04,7.80
2011,06,26,06,05,7.80
2011,06,26,06,06,7.80
2011,06,26,06,07,7.90
2011,06,26,06,08,7.90
2011,06,26,06,09,7.90
2011,06,26,06,10,8.00
2011,06,26,06,11,8.10
2011,06,26,06,12,8.10
2011,06,26,06,13,8.10
2011,06,26,06,14,8.20
2011,06,26,06,15,8.20
2011,06,26,06,16,8.30
2011,06,26,06,17,8.40
2011,06,26,06,18,8.50
2011,06,26,06,19,8.70
2011,06,26,06,20,8.70
2011,06,26,06,21,8.80
2011,06,26,06,22,8.90
2011,06,26,06,23,9.00
2011,06,26,06,24,9.10
2011,06,26,06,25,9.10
2011,06,26,06,26,9.20
2011,06,26,06,27,9.20
2011,06,26,06,28,9.20
2011,06,26,06,29,9.20
2011,06,26,06,30,9.20
2011,06,26,06,31,9.20
2011,06,26,06,32,9.20
2011,06,26,06,33,9.20
2011,06,26,06,34,9.30
2011,06,26,06,35,9.30
2011,06,26,06,36,9.30
2011,06,26,06,37,9.40
2011,06,26,06,38,9.40
2011,06,26,06,39,9.50
2011,06,26,06,40,9.60
2011,06,26,06,41,9.70
2011,06,26,06,42,9.70
2011,06,26,06,43,9.80
2011,06,26,06,44,9.90
2011,06,26,06,45,9.90
2011,06,26,06,46,9.90
2011,06,26,06,47,10.00
2011,06,26,06,48,10.10
2011,06,26,06,49,10.10
2011,06,26,06,50,10.10
2011,06,26,06,51,10.10
2011,06,26,06,52,10.20
2011,06,26,06,53,10.20
2011,06,26,06,54,10.30
2011,06,26,06,55,10.30
2011,06,26,06,56,10.40
2011,06,26,06,57,10.40
2011,06,26,06,58,10.40
2011,06,26,06,59,10.40
2011,06,26,07,00,10.50
2011,06,26,07,01,10.60
2011,06,26,07,02,10.60
2011,06,26,07,03,10.60
2011,06,26,07,04,10.70
2011,06,26,07,05,10.70
2011,06,26,07,06,10.80
2011,06,26,07,07,10.90
2011,06,26,07,08,10.90
2011,06,26,07,09,11.00
2011,06,26,07,10,11.10
2011,06,26,07,11,11.10
2011,06,26,07,12,11.20
2011,06,26,07,13,11.30
2011,06,26,07,14,11.40
2011,06,26,07,15,11.50
2011,06,26,07,16,11.60
2011,06,26,07,17,11.60
2011,06,26,07,18,11.60
2011,06,26,07,19,11.60
2011,06,26,07,20,11.60
2011,06,26,07,21,11.60
2011,06,26,07,22,11.60
2011,06,26,07,23,11.70
2011,06,26,07,24,11.70
2011,06,26,07,25,11.70
2011,06,26,07,26,11.60
2011,06,26,07,27,11.60
2011,06,26,07,28,11.60
2011,06,26,07,29,11.60
2011,06,26,07,30,11.60
2011,06,26,07,31,11.60
2011,06,26,07,32,11.70
2011,06,26,07,33,11.70
2011,06,26,07,34,11.80
2011,06,26,07,35,11.80
2011,06,26,07,36,11.80
2011,06,26,07,37,11.90
2011,06,26,07,38,11.90
2011,06,26,07,39,12.00
2011,06,26,07,40,12.10
2011,06,26,07,41,12.10
2011,06,26,07,42,12.20
2011,06,26,07,43,12.30
2011,06,26,07,44,12.30
2011,06,26,07,45,12.40
2011,06,26,07,46,12.40
2011,06,26,07,47,12.50
2011,06,26,07,48,12.50
2011,06,26,07,49,12.50
2011,06,26,07,50,12.50
2011,06,26,07,51,12.50
2011,06,26,07,52,12.60
2011,06,26,07,53,12.60
2011,06,26,07,54,12.70
2011,06,26,07,55,12.70
2011,06,26,07,56,12.80
2011,06,26,07,57,12.90
2011,06,26,07,58,12.90
2011,06,26,07,59,13.00
2011,06,26,08,00,13.00
2011,06,26,08,01,13.00
2011,06,26,08,02,13.00
2011,06,26,08,03,13.10
2011,06,26,08,04,13.10
2011,06,26,08,05,13.10
2011,06,26,08,06,13.10
2011,06,26,08,07,13.20
2011,06,26,08,08,13.20
2011,06,26,08,09,13.30
2011,06,26,08,10,13.30
2011,06,26,08,11,13.30
2011,06,26,08,12,13.30
2011,06,26,08,13,13.30
2011,06,26,08,14,13.30
2011,06,26,08,15,13.40
2011,06,26,08,16,13.40
2011,06,26,08,17,13.50
2011,06,26,08,18,13.50
2011,06,26,08,19,13.60
2011,06,26,08,20,13.60
2011,06,26,08,21,13.70
2011,06,26,08,22,13.70
2011,06,26,08,23,13.70
2011,06,26,08,24,13.70
2011,06,26,08,25,13.70
2011,06,26,08,26,13.70
2011,06,26,08,27,13.70
2011,06,26,08,28,13.80
2011,06,26,08,29,13.80
2011,06,26,08,30,13.80
2011,06,26,08,31,13.80
2011,06,26,08,32,13.90
2011,06,26,08,33,13.90
2011,06,26,08,34,13.90
2011,06,26,08,35,14.00
2011,06,26,08,36,14.00
2011,06,26,08,37,14.10
2011,06,26,08,38,14.10
2011,06,26,08,39,14.20
2011,06,26,08,40,14.20
2011,06,26,08,41,14.30
2011,06,26,08,42,14.40
2011,06,26,08,43,14.40
2011,06,26,08,44,14.50
2011,06,26,08,45,14.50
2011,06,26,08,46,14.50
2011,06,26,08,47,14.50
2011,06,26,08,48,14.50
2011,06,26,08,49,14.50
2011,06,26,08,50,14.60
2011,06,26,08,51,14.70
2011,06,26,08,52,14.80
2011,06,26,08,53,14.90
2011,06,26,08,54,15.00
2011,06,26,08,55,15.00
2011,06,26,08,56,15.10
2011,06,26,08,57,15.20
2011,06,26,08,58,15.20
2011,06,26,08,59,15.20
2011,06,26,09,00,15.20
2011,06,26,09,01,15.20
2011,06,26,09,02,15.30
2011,06,26,09,03,15.40
2011,06,26,09,04,15.60
2011,06,26,09,05,15.70
2011,06,26,09,06,15.70
2011,06,26,09,07,15.80
2011,06,26,09,08,15.80
2011,06,26,09,09,15.90
2011,06,26,09,10,15.90
2011,06,26,09,11,15.80
2011,06,26,09,12,15.80
2011,06,26,09,13,15.80
2011,06,26,09,14,15.80
2011,06,26,09,15,15.90
2011,06,26,09,16,15.90
2011,06,26,09,17,15.80
2011,06,26,09,18,15.90
2011,06,26,09,19,16.00
2011,06,26,09,20,16.10
2011,06,26,09,21,16.10
2011,06,26,09,22,16.10
2011,06,26,09,23,16.20
2011,06,26,09,24,16.30
2011,06,26,09,25,16.30
2011,06,26,09,26,16.40
2011,06,26,09,27,16.40
2011,06,26,09,28,16.40
2011,06,26,09,29,16.40
2011,06,26,09,30,16.40
2011,06,26,09,31,16.40
2011,06,26,09,32,16.60
2011,06,26,09,33,16.50
2011,06,26,09,34,16.60
2011,06,26,09,35,16.60
2011,06,26,09,36,16.60
2011,06,26,09,37,16.60
2011,06,26,09,38,16.60
2011,06,26,09,39,16.70
2011,06,26,09,40,16.70
2011,06,26,09,41,16.70
2011,06,26,09,42,16.70
2011,06,26,09,43,16.80
2011,06,26,09,44,16.80
2011,06,26,09,45,16.80
2011,06,26,09,46,16.70
2011,06,26,09,47,16.50
2011,06,26,09,48,16.40
2011,06,26,09,49,16.40
2011,06,26,09,50,16.40
2011,06,26,09,51,16.40
2011,06,26,09,52,16.50
2011,06,26,09,53,16.60
2011,06,26,09,54,16.60
2011,06,26,09,55,16.60
2011,06,26,09,56,16.70
2011,06,26,09,57,16.70
2011,06,26,09,58,16.80
2011,06,26,09,59,16.90
2011,06,26,10,00,16.90
2011,06,26,10,01,16.80
2011,06,26,10,02,16.80
2011,06,26,10,03,16.70
2011,06,26,10,04,16.70
2011,06,26,10,05,16.70
2011,06,26,10,06,16.70
2011,06,26,10,07,16.70
2011,06,26,10,08,16.70
2011,06,26,10,09,16.70
2011,06,26,10,10,16.70
2011,06,26,10,11,16.80
2011,06,26,10,12,16.80
2011,06,26,10,13,16.80
2011,06,26,10,14,16.90
2011,06,26,10,15,16.90
2011,06,26,10,16,17.00
2011,06,26,10,17,17.10
2011,06,26,10,18,17.10
2011,06,26,10,19,17.20
2011,06,26,10,20,17.30
2011,06,26,10,21,17.30
2011,06,26,10,22,17.30
2011,06,26,10,23,17.40
2011,06,26,10,24,17.40
2011,06,26,10,25,17.50
2011,06,26,10,26,17.60
2011,06,26,10,27,17.70
2011,06,26,10,28,17.80
2011,06,26,10,29,18.00
2011,06,26,10,30,18.10
2011,06,26,10,31,18.00
2011,06,26,10,32,17.90
2011,06,26,10,33,17.80
2011,06,26,10,34,17.80
2011,06,26,10,35,17.80
2011,06,26,10,36,17.90
2011,06,26,10,37,18.00
2011,06,26,10,38,18.10
2011,06,26,10,39,18.20
2011,06,26,10,40,18.20
2011,06,26,10,41,18.20
2011,06,26,10,42,18.20
2011,06,26,10,43,18.10
2011,06,26,10,44,18.10
2011,06,26,10,45,18.10
2011,06,26,10,46,18.20
2011,06,26,10,47,18.20
2011,06,26,10,48,18.20
2011,06,26,10,49,18.20
2011,06,26,10,50,18.20
2011,06,26,10,51,18.30
2011,06,26,10,52,18.30
2011,06,26,10,53,18.30
2011,06,26,10,54,18.40
2011,06,26,10,55,18.30
2011,06,26,10,56,18.40
2011,06,26,10,57,18.30
2011,06,26,10,58,18.20
2011,06,26,10,59,18.10
2011,06,26,11,00,17.80
2011,06,26,11,01,17.70
2011,06,26,11,02,17.70
2011,06,26,11,03,17.60
2011,06,26,11,04,17.50
2011,06,26,11,05,17.50
2011,06,26,11,06,17.50
2011,06,26,11,07,17.60
2011,06,26,11,08,17.70
2011,06,26,11,09,17.90
2011,06,26,11,10,18.00
2011,06,26,11,11,18.20
2011,06,26,11,12,18.40
2011,06,26,11,13,18.60
2011,06,26,11,14,18.70
2011,06,26,11,15,18.90
2011,06,26,11,16,18.90
2011,06,26,11,17,19.00
2011,06,26,11,18,19.10
2011,06,26,11,19,19.00
2011,06,26,11,20,18.50
2011,06,26,11,21,18.20
2011,06,26,11,22,17.90
2011,06,26,11,23,17.60
2011,06,26,11,24,17.40
2011,06,26,11,25,17.30
2011,06,26,11,26,17.00
2011,06,26,11,27,16.90
2011,06,26,11,28,16.80
2011,06,26,11,29,16.80
2011,06,26,11,30,16.70
2011,06,26,11,31,16.70
2011,06,26,11,32,16.90
2011,06,26,11,33,16.90
2011,06,26,11,34,16.80
2011,06,26,11,35,16.80
2011,06,26,11,36,16.80
2011,06,26,11,37,16.70
2011,06,26,11,38,16.70
2011,06,26,11,39,16.70
2011,06,26,11,40,16.80
2011,06,26,11,41,16.80
2011,06,26,11,42,16.90
2011,06,26,11,43,17.00
2011,06,26,11,44,17.20
2011,06,26,11,45,17.30
2011,06,26,11,46,17.30
2011,06,26,11,47,17.20
2011,06,26,11,48,17.30
2011,06,26,11,49,17.30
2011,06,26,11,50,17.30
2011,06,26,11,51,17.30
2011,06,26,11,52,17.30
2011,06,26,11,53,17.30
2011,06,26,11,54,17.40
2011,06,26,11,55,17.40
2011,06,26,11,56,17.40
2011,06,26,11,57,17.40
2011,06,26,11,58,17.40
2011,06,26,11,59,17.50
2011,06,26,12,00,17.50
2011,06,26,12,01,17.50
2011,06,26,12,02,17.50
2011,06,26,12,03,17.50
2011,06,26,12,04,17.50
2011,06,26,12,05,17.40
2011,06,26,12,06,17.40
2011,06,26,12,07,17.40
2011,06,26,12,08,17.30
2011,06,26,12,09,17.30
2011,06,26,12,10,17.50
2011,06,26,12,11,17.60
2011,06,26,12,12,17.70
2011,06,26,12,13,17.60
2011,06,26,12,14,17.50
2011,06,26,12,15,17.40
2011,06,26,12,16,17.40
2011,06,26,12,17,17.30
2011,06,26,12,18,17.20
2011,06,26,12,19,17.20
2011,06,26,12,20,17.30
2011,06,26,12,21,17.30
2011,06,26,12,22,17.30
2011,06,26,12,23,17.30
2011,06,26,12,24,17.30
2011,06,26,12,25,17.20
2011,06,26,12,26,17.10
2011,06,26,12,27,17.20
2011,06,26,12,28,17.20
2011,06,26,12,29,17.20
2011,06,26,12,30,17.40
2011,06,26,12,31,17.40
2011,06,26,12,32,17.30
2011,06,26,12,33,17.10
2011,06,26,12,34,17.00
2011,06,26,12,35,17.10
2011,06,26,12,36,17.10
2011,06,26,12,37,17.00
2011,06,26,12,38,17.00
2011,06,26,12,39,16.90
2011,06,26,12,40,16.90
2011,06,26,12,41,16.90
2011,06,26,12,42,16.90
2011,06,26,12,43,17.00
2011,06,26,12,44,17.10
2011,06,26,12,45,17.00
2011,06,26,12,46,17.00
2011,06,26,12,47,16.90
2011,06,26,12,48,17.00
2011,06,26,12,49,17.00
2011,06,26,12,50,17.10
2011,06,26,12,51,17.20
2011,06,26,12,52,17.20
2011,06,26,12,53,17.10
2011,06,26,12,54,17.10
2011,06,26,12,55,17.10
2011,06,26,12,56,17.20
2011,06,26,12,57,17.30
2011,06,26,12,58,17.30
2011,06,26,12,59,17.40
2011,06,26,13,00,17.40
2011,06,26,13,01,17.30
2011,06,26,13,02,17.30
2011,06,26,13,03,17.30
2011,06,26,13,04,17.20
2011,06,26,13,05,17.30
2011,06,26,13,06,17.30
2011,06,26,13,07,17.30
2011,06,26,13,08,17.30
2011,06,26,13,09,17.30
2011,06,26,13,10,17.30
2011,06,26,13,11,17.40
2011,06,26,13,12,17.40
2011,06,26,13,13,17.40
2011,06,26,13,14,17.60
2011,06,26,13,15,17.60
2011,06,26,13,16,17.50
2011,06,26,13,17,17.40
2011,06,26,13,18,17.40
2011,06,26,13,19,17.50
2011,06,26,13,20,17.50
2011,06,26,13,21,17.50
2011,06,26,13,22,17.70
2011,06,26,13,23,17.70
2011,06,26,13,24,17.80
2011,06,26,13,25,17.70
2011,06,26,13,26,17.60
2011,06,26,13,27,17.60
2011,06,26,13,28,17.70
2011,06,26,13,29,17.60
2011,06,26,13,30,17.60
2011,06,26,13,31,17.50
2011,06,26,13,32,17.60
2011,06,26,13,33,17.70
2011,06,26,13,34,17.70
2011,06,26,13,35,17.60
2011,06,26,13,36,17.50
2011,06,26,13,37,17.40
2011,06,26,13,38,17.50
2011,06,26,13,39,17.50
2011,06,26,13,40,17.50
2011,06,26,13,41,17.40
2011,06,26,13,42,17.40
2011,06,26,13,43,17.50
2011,06,26,13,44,17.50
2011,06,26,13,45,17.60
2011,06,26,13,46,17.50
2011,06,26,13,47,17.40
2011,06,26,13,48,17.50
2011,06,26,13,49,17.50
2011,06,26,13,50,17.50
2011,06,26,13,51,17.40
2011,06,26,13,52,17.10
2011,06,26,13,53,17.10
2011,06,26,13,54,17.10
2011,06,26,13,55,17.00
2011,06,26,13,56,17.00
2011,06,26,13,57,17.10
2011,06,26,13,58,17.30
2011,06,26,13,59,17.20
2011,06,26,14,00,17.00
2011,06,26,14,01,17.00
2011,06,26,14,02,16.90
2011,06,26,14,03,16.90
2011,06,26,14,04,16.90
2011,06,26,14,05,17.00
2011,06,26,14,06,17.00
2011,06,26,14,07,17.00
2011,06,26,14,08,16.90
2011,06,26,14,09,17.00
2011,06,26,14,10,17.20
2011,06,26,14,11,17.30
2011,06,26,14,12,17.40
2011,06,26,14,13,17.50
2011,06,26,14,14,17.60
2011,06,26,14,15,17.50
2011,06,26,14,16,17.50
2011,06,26,14,17,17.70
2011,06,26,14,18,17.70
2011,06,26,14,19,17.60
2011,06,26,14,20,17.50
2011,06,26,14,21,17.70
2011,06,26,14,22,17.80
2011,06,26,14,23,17.70
2011,06,26,14,24,17.80
2011,06,26,14,25,17.80
2011,06,26,14,26,17.70
2011,06,26,14,27,17.70
2011,06,26,14,28,17.70
2011,06,26,14,29,17.80
2011,06,26,14,30,17.80
2011,06,26,14,31,17.90
2011,06,26,14,32,17.80
2011,06,26,14,33,17.70
2011,06,26,14,34,17.80
2011,06,26,14,35,18.00
2011,06,26,14,36,18.10
2011,06,26,14,37,18.20
2011,06,26,14,38,18.30
2011,06,26,14,39,18.30
2011,06,26,14,40,18.20
2011,06,26,14,41,18.20
2011,06,26,14,42,18.20
2011,06,26,14,43,18.20
2011,06,26,14,44,18.20
2011,06,26,14,45,18.20
2011,06,26,14,46,18.20
2011,06,26,14,47,18.20
2011,06,26,14,48,18.20
2011,06,26,14,49,18.20
2011,06,26,14,50,18.30
2011,06,26,14,51,18.20
2011,06,26,14,52,18.30
2011,06,26,14,53,18.30
2011,06,26,14,54,18.30
2011,06,26,14,55,18.40
2011,06,26,14,56,18.50
2011,06,26,14,57,18.50
2011,06,26,14,58,18.60
2011,06,26,14,59,18.50
2011,06,26,15,00,18.60
2011,06,26,15,01,18.60
2011,06,26,15,02,18.60
2011,06,26,15,03,18.50
2011,06,26,15,04,18.60
2011,06,26,15,05,18.80
2011,06,26,15,06,18.90
2011,06,26,15,07,18.90
2011,06,26,15,08,18.80
2011,06,26,15,09,18.60
2011,06,26,15,10,18.60
2011,06,26,15,11,18.50
2011,06,26,15,12,18.40
2011,06,26,15,13,18.30
2011,06,26,15,14,18.20
2011,06,26,15,15,18.20
2011,06,26,15,16,18.30
2011,06,26,15,17,18.40
2011,06,26,15,18,18.40
2011,06,26,15,19,18.40
2011,06,26,15,20,18.50
2011,06,26,15,21,18.50
2011,06,26,15,22,18.60
2011,06,26,15,23,18.70
2011,06,26,15,24,18.60
2011,06,26,15,25,18.60
2011,06,26,15,26,18.70
2011,06,26,15,27,18.60
2011,06,26,15,28,18.60
2011,06,26,15,29,18.60
2011,06,26,15,30,18.60
2011,06,26,15,31,18.70
2011,06,26,15,32,18.70
2011,06,26,15,33,18.60
2011,06,26,15,34,18.60
2011,06,26,15,35,18.60
2011,06,26,15,36,18.60
2011,06,26,15,37,18.70
2011,06,26,15,38,18.70
2011,06,26,15,39,18.70
2011,06,26,15,40,18.90
2011,06,26,15,41,18.90
2011,06,26,15,42,18.90
2011,06,26,15,43,18.90
2011,06,26,15,44,18.90
2011,06,26,15,45,18.90
2011,06,26,15,46,18.90
2011,06,26,15,47,18.80
2011,06,26,15,48,18.70
2011,06,26,15,49,18.70
2011,06,26,15,50,18.80
2011,06,26,15,51,18.80
2011,06,26,15,52,18.90
2011,06,26,15,53,18.90
2011,06,26,15,54,19.10
2011,06,26,15,55,19.10
2011,06,26,15,56,19.10
2011,06,26,15,57,19.00
2011,06,26,15,58,18.90
2011,06,26,15,59,18.80
2011,06,26,16,00,18.70
2011,06,26,16,01,18.70
2011,06,26,16,02,18.60
2011,06,26,16,03,18.70
2011,06,26,16,04,18.70
2011,06,26,16,05,18.70
2011,06,26,16,06,18.70
2011,06,26,16,07,18.70
2011,06,26,16,08,18.80
2011,06,26,16,09,18.80
2011,06,26,16,10,18.70
2011,06,26,16,11,18.70
2011,06,26,16,12,18.60
2011,06,26,16,13,18.60
2011,06,26,16,14,18.50
2011,06,26,16,15,18.50
2011,06,26,16,16,18.50
2011,06,26,16,17,18.40
2011,06,26,16,18,18.20
2011,06,26,16,19,18.20
2011,06,26,16,20,18.20
2011,06,26,16,21,18.20
2011,06,26,16,22,18.20
2011,06,26,16,23,18.00
2011,06,26,16,24,17.90
2011,06,26,16,25,17.90
2011,06,26,16,26,17.90
2011,06,26,16,27,17.90
2011,06,26,16,28,17.90
2011,06,26,16,29,17.90
2011,06,26,16,30,17.90
2011,06,26,16,31,17.90
2011,06,26,16,32,17.90
2011,06,26,16,33,17.90
2011,06,26,16,34,17.90
2011,06,26,16,35,18.00
2011,06,26,16,36,18.10
2011,06,26,16,37,18.10
2011,06,26,16,38,18.20
2011,06,26,16,39,18.20
2011,06,26,16,40,18.20
2011,06,26,16,41,18.20
2011,06,26,16,42,18.20
2011,06,26,16,43,18.10
2011,06,26,16,44,18.10
2011,06,26,16,45,18.10
2011,06,26,16,46,18.10
2011,06,26,16,47,18.20
2011,06,26,16,48,18.30
2011,06,26,16,49,18.50
2011,06,26,16,50,18.60
2011,06,26,16,51,18.70
2011,06,26,16,52,18.80
2011,06,26,16,53,18.90
2011,06,26,16,54,19.00
2011,06,26,16,55,18.90
2011,06,26,16,56,18.90
2011,06,26,16,57,18.80
2011,06,26,16,58,18.70
2011,06,26,16,59,18.70
2011,06,26,17,00,18.70
2011,06,26,17,01,18.60
2011,06,26,17,02,18.60
2011,06,26,17,03,18.70
2011,06,26,17,04,18.60
2011,06,26,17,05,18.60
2011,06,26,17,06,18.60
2011,06,26,17,07,18.60
2011,06,26,17,08,18.60
2011,06,26,17,09,18.60
2011,06,26,17,10,18.60
2011,06,26,17,11,18.70
2011,06,26,17,12,18.60
2011,06,26,17,13,18.60
2011,06,26,17,14,18.60
2011,06,26,17,15,18.60
2011,06,26,17,16,18.60
2011,06,26,17,17,18.60
2011,06,26,17,18,18.50
2011,06,26,17,19,18.50
2011,06,26,17,20,18.50
2011,06,26,17,21,18.50
2011,06,26,17,22,18.50
2011,06,26,17,23,18.50
2011,06,26,17,24,18.50
2011,06,26,17,25,18.50
2011,06,26,17,26,18.60
2011,06,26,17,27,18.70
2011,06,26,17,28,18.80
2011,06,26,17,29,18.90
2011,06,26,17,30,18.90
2011,06,26,17,31,18.90
2011,06,26,17,32,18.90
2011,06,26,17,33,18.90
2011,06,26,17,34,18.90